Showing default

CXO, 25867

Orbit data source: Space-Track

CXO, 25867 is a payload satellite owned by NASA MSFC (US) in HEO that was launched on Fri, 23 Jul 1999 UTC via an SPACE SHUTTLE launch vehicle from the Air Force Eastern Test Range (AFETR). Payload-class satellites include a variety of spacecraft equipped with specific instruments for various scientific and technological missions. These include communications satellites like Starlink; space stations such as the ISS; scientific satellites like the Hubble; Earth observation satellites from companies like Planet Labs, Umbra, and HawkEye 360; GPS; miniature CubeSats for education and research; and military/defense satellites.

Loading next visibility...
Identifier
25867, 1999-040B
Orbit
HEO
Country
Flag of USUS
Related business
Manufacturer
TRW
Mission
Operational Civil Astronomy
Bus & Motor
AXAF, TR-308 X4
Mass
5,677 kg wet, 4,653 kg dry
Launch date (UTC)
1999-07-23 (27 years ago)
Launch vehicle
SPACE SHUTTLE
Launch site
Air Force Eastern Test Range (AFETR)
Object type
Payload
Rocket body
Debris
Shape & HBR
Cyl + 2 Pan, 13.7 m
Radar Cross Section
72.045 m², Large (>1 m²)

Expand to show TLE details & history
Last TLE update: in 1 day

TLE from in 1 day
0 CXO
1 25867U 99040B   26267.22283988  .00001017  00000-0  00000-0 0  9994
2 25867  57.5064 114.1177 7686103 309.2542   0.4828  0.37800426 17690
Epoch: 2026-09-24T05:20Z
TLE epoch observation values (Epoch: 2026-09-24T05:20:53.365Z)
Latitude
-37.53473°
Longitude
1.63484°
Altitude
12,499.003 km
Speed
6.109 km/s
True Right ascension
05h 39m 40s
True Declination
-37° 28' 19"
Sunlit
Object was in daylight at epoch
Visualization orbit readout
Latitude
Unknown
Longitude
Unknown
Altitude
Unknown
Speed
Unknown
Apparent Right ascension
Unknown
Apparent Declination
Unknown
Sunlit
N/A
Visualization observer readout
Local Sidereal Time
16:01:34
Azimuth
Unknown
Elevation
Unknown
Doppler factor
Unknown
Orbital elements
Apogee altitude
136,523.009 km
Perigee altitude
12,317.815 km
Semi-major axis
80,798.549 km
Eccentricity
0.76861
Inclination
57.5064°
RAAN
114.1177°
Arg. of periapsis
309.2542°
True anomaly
5.76011°
Mean anomaly
0.4828°
Eccentric anomaly
2.08499°
Mean motion
0.0945 °/min
Orbital period
3,809.47 mins
BSTAR
0
Loading maneuver chart data...
Computing Atmospheric mass density...
Loading historical data...
Loading historical data...
Loading historical data...
Loading historical data...
Loading historical data...
Loading historical data...
Loading historical data...

Documentation

Showing up to 5 results
|